New Philadelphia, OH

7:58 PM EST on December 03, 2016 (GMT -0500)
Clever

Weather History for KPHD - January, 2012

Change the Weather History Date:

Tuesday, January 24, 2012

  Actual Average Record
Temperature  
Mean Temperature 35 °F 29 °F  
Max Temperature 38 °F 38 °F 65 °F (1967)
Min Temperature 31 °F 21 °F -17 °F (1963)
Degree Days  
Heating Degree Days 30 36  
Month to date heating degree days 822 864  
Since 1 July heating degree days 1112 3025  
Cooling Degree Days 0 0  
Month to date cooling degree days 0 0  
Year to date cooling degree days 0 0  
Moisture  
Dew Point 26 °F    
Average Humidity 70    
Maximum Humidity 75    
Minimum Humidity 64    
Precipitation  
Precipitation 0.00 in 0.08 in 0.64 in (1950)
Month to date precipitation 1.52 2.03  
Year to date precipitation 1.52 2.03  
Sea Level Pressure  
Sea Level Pressure 30.17 in    
Wind  
Wind Speed 9 mph (WNW)    
Max Wind Speed 17 mph    
Max Gust Speed 28 mph    
Visibility 10 miles    
Events      
T = Trace of Precipitation, MM = Missing Value Source: NWS Daily Summary

Daily Weather History Graph

Daily Weather History Graph

Search for Another Location

Airport or City:

Trip Planner

Search our weather history database for the weather conditions in past years. The results will help you decide how hot, cold, wet, or windy it might be!

Date:

Astronomy

Jan. 24, 2012 Rise Set
Actual Time 7:42 AM EST 5:33 PM EST
Civil Twilight 7:12 AM EST 6:03 PM EST
Nautical Twilight 6:39 AM EST 6:36 PM EST
Astronomical Twilight 6:07 AM EST 7:08 PM EST
Moon 8:10 AM EST (1/24) 7:24 PM EST (1/24)
Length of Visible Light 10h 50m
Length of Day
9h 51m
New Moon, 2% of the Moon is Illuminated
Jan 24
New Moon
Jan 30
First Quarter
Feb 7
Full
Feb 14
Last Quarter
Feb 21
New

Hourly Weather History & Observations

Time (EST) Temp. Windchill Dew Point Humidity Pressure Visibility Wind Dir Wind Speed Gust Speed Precip Events Conditions
12:53 AM 37.9 °F 30.0 °F 27.0 °F 65% 29.98 in 10.0 mi West 12.7 mph 27.6 mph N/A   Overcast
1:53 AM 37.9 °F 32.1 °F 27.0 °F 65% 29.99 in 10.0 mi West 8.1 mph - N/A   Overcast
2:53 AM 37.9 °F 30.0 °F 27.0 °F 65% 30.01 in 10.0 mi West 12.7 mph 20.7 mph N/A   Overcast
3:53 AM 37.9 °F 32.1 °F 28.0 °F 68% 30.01 in 10.0 mi West 8.1 mph - N/A   Overcast
4:53 AM 37.9 °F 32.1 °F 27.0 °F 65% 30.03 in 10.0 mi West 8.1 mph - N/A   Overcast
5:53 AM 37.9 °F 31.5 °F 28.0 °F 68% 30.03 in 10.0 mi WSW 9.2 mph - N/A   Overcast
6:53 AM 37.0 °F 32.4 °F 27.0 °F 67% 30.05 in 10.0 mi West 5.8 mph - N/A   Overcast
7:53 AM 37.0 °F 29.8 °F 28.0 °F 70% 30.08 in 10.0 mi West 10.4 mph 16.1 mph N/A   Overcast
9:53 AM 37.0 °F 30.4 °F 27.0 °F 67% 30.12 in 10.0 mi West 9.2 mph 16.1 mph N/A   Overcast
10:53 AM 37.0 °F 29.3 °F 26.1 °F 65% 30.15 in 10.0 mi West 11.5 mph 20.7 mph N/A   Overcast
11:53 AM 37.0 °F 31.6 °F 27.0 °F 67% 30.16 in 10.0 mi WNW 6.9 mph 16.1 mph N/A   Overcast
12:53 PM 36.0 °F 29.0 °F 28.0 °F 73% 30.17 in 8.0 mi WNW 9.2 mph - N/A   Overcast
1:53 PM 35.1 °F 27.9 °F 27.0 °F 72% 30.18 in 10.0 mi West 9.2 mph - N/A   Overcast
2:53 PM 34.0 °F 26.0 °F 27.0 °F 75% 30.20 in 7.0 mi West 10.4 mph - N/A   Overcast
4:53 PM 34.0 °F 28.8 °F 25.0 °F 70% 30.25 in 8.0 mi NW 5.8 mph - N/A   Overcast
5:53 PM 33.1 °F 26.1 °F 25.0 °F 72% 30.29 in 10.0 mi NW 8.1 mph - N/A   Overcast
6:53 PM 32.0 °F 23.6 °F 25.0 °F 75% 30.32 in 10.0 mi NW 10.4 mph - N/A   Overcast
7:53 PM 33.1 °F 27.7 °F 25.0 °F 72% 30.33 in 10.0 mi WNW 5.8 mph - N/A   Overcast
8:53 PM 32.0 °F 24.8 °F 25.0 °F 75% 30.35 in 10.0 mi NW 8.1 mph - N/A   Overcast
9:53 PM 32.0 °F 25.6 °F 23.0 °F 69% 30.36 in 10.0 mi NW 6.9 mph - N/A   Overcast
10:53 PM 32.0 °F 27.5 °F 23.0 °F 69% 30.36 in 10.0 mi NNW 4.6 mph - N/A   Overcast
11:53 PM 30.9 °F 26.2 °F 23.0 °F 72% 30.37 in 10.0 mi NNW 4.6 mph - N/A   Overcast